(240) Vanadis
ephemeris date magn radius delta ra dec elong phase
Today27 Jun 202614.73.195 AU2.705 AU13h35m-07°24'109.8°17.4°
Opposition3 Jul 202713.02.986 AU1.969 AU18h47m-22°12'179.2°0.3°
(240) Vanadis - 2026-06-27
astro.vanbuitenen.nl


 
-1 year
-1 month
-1 day
Now
+1 day
+1 month
+1 year

The interactive orbit chart above shows the body's path through the solar system and its position at the given date. Green and blue lines are shown perpendicular to the ecliptic plane: Green if the path is above the ecliptic plane, blue if it is below. (Left-click and drag to rotate the view; Right-click and drag to move the view; Use scroll wheel to zoom in our out.)

The orbital elements of Vanadis are:

            e (Eccentricity)                : 0.2087531
            a (Semimajor axis)              : 2.6627914
            i (Inclination)                 : 2.10628
            Ω (Longitude of ascending node) : 115.04787
            ω (Argument of perihelion)      : 300.70314
            M (Mean anomaly)                : 155.84946
            Epoch                           : 2026 Jun 09

            L (Longitude of perihelion)     : 55.76801
            B (Latitude of perihelion)      : -1.81092
            P (Orbital period in years)     : 4.35            
        

The light curve chart below shows the estimated development of the minor planet's magnitude.


The all-sky chart below shows the path of the minor planet over the same period as the light curve. The current position is marked yellow.





The following chart shows the path of the minor planet in the next few days. The field of view is optimized for (~10x50) binoculars and finderscopes.




Ephemerides:
Date       Time       RA (2000)    DEC (2000)    delta   radius  elong  phase   PA    magn
2026-06-27 00:00 UT   13 35 32.7   -07 24 23     2.705    3.195  109.8   17.4   112   14.7 
2026-06-27 01:05 UT   13 35 33.2   -07 24 28     2.705    3.195  109.8   17.4   112   14.7 
2026-06-28 00:00 UT   13 35 44.3   -07 26 24     2.718    3.196  108.9   17.5   112   14.7 
2026-06-29 00:00 UT   13 35 57.2   -07 28 31     2.732    3.196  108.0   17.6   112   14.8 
2026-06-30 00:00 UT   13 36 11.1   -07 30 44     2.746    3.197  107.1   17.7   112   14.8 
2026-07-01 00:00 UT   13 36 26.1   -07 33 03     2.760    3.197  106.2   17.8   112   14.8 
2026-07-02 00:00 UT   13 36 42.1   -07 35 28     2.775    3.198  105.4   17.8   112   14.8 
2026-07-03 00:00 UT   13 36 59.3   -07 37 59     2.789    3.198  104.5   17.9   112   14.8 
2026-07-04 00:00 UT   13 37 17.5   -07 40 36     2.803    3.199  103.6   18.0   112   14.8 
2026-07-05 00:00 UT   13 37 36.7   -07 43 18     2.817    3.199  102.8   18.1   112   14.8 
2026-07-06 00:00 UT   13 37 57.0   -07 46 06     2.831    3.200  101.9   18.1   112   14.9 
2026-07-07 00:00 UT   13 38 18.3   -07 48 59     2.846    3.200  101.1   18.2   112   14.9 
2026-07-08 00:00 UT   13 38 40.6   -07 51 58     2.860    3.201  100.2   18.2   112   14.9 
2026-07-09 00:00 UT   13 39 03.9   -07 55 02     2.875    3.201   99.4   18.3   112   14.9 
2026-07-10 00:00 UT   13 39 28.2   -07 58 12     2.889    3.202   98.5   18.3   111   14.9 
2026-07-11 00:00 UT   13 39 53.5   -08 01 27     2.903    3.202   97.7   18.3   111   14.9 
2026-07-12 00:00 UT   13 40 19.8   -08 04 46     2.918    3.203   96.9   18.4   111   14.9 
2026-07-13 00:00 UT   13 40 47.1   -08 08 11     2.932    3.203   96.0   18.4   111   14.9 
2026-07-14 00:00 UT   13 41 15.3   -08 11 41     2.947    3.203   95.2   18.4   111   15.0 
2026-07-15 00:00 UT   13 41 44.4   -08 15 15     2.962    3.204   94.4   18.4   111   15.0 
2026-07-16 00:00 UT   13 42 14.5   -08 18 55     2.976    3.204   93.6   18.5   111   15.0 
2026-07-17 00:00 UT   13 42 45.5   -08 22 39     2.991    3.205   92.8   18.5   111   15.0 
2026-07-18 00:00 UT   13 43 17.4   -08 26 27     3.005    3.205   92.0   18.5   111   15.0 
2026-07-19 00:00 UT   13 43 50.3   -08 30 20     3.020    3.206   91.1   18.5   111   15.0 
2026-07-20 00:00 UT   13 44 24.0   -08 34 17     3.034    3.206   90.3   18.5   111   15.0 
2026-07-21 00:00 UT   13 44 58.5   -08 38 19     3.049    3.206   89.5   18.5   111   15.0 
2026-07-22 00:00 UT   13 45 34.0   -08 42 25     3.064    3.207   88.8   18.5   111   15.0 
2026-07-23 00:00 UT   13 46 10.3   -08 46 35     3.078    3.207   88.0   18.5   111   15.1 
2026-07-24 00:00 UT   13 46 47.4   -08 50 48     3.093    3.207   87.2   18.4   111   15.1 
2026-07-25 00:00 UT   13 47 25.3   -08 55 06     3.107    3.208   86.4   18.4   111   15.1 
2026-07-26 00:00 UT   13 48 04.1   -08 59 28     3.122    3.208   85.6   18.4   111   15.1 
2026-07-27 00:00 UT   13 48 43.7   -09 03 53     3.136    3.208   84.8   18.4   111   15.1 


    Terminology:
            
    delta:  distance between minor planet and earth in AU
    radius: distance between minor planet and sun in AU
    magn:   magnitude (brightness) estimate    
    ra:     right ascension in hours (24h = 360deg)
    dec:    declination in degrees
    elong:  elongation in degrees (angle sun-earth-minor planet)    
    phase:  phase angle in degrees (angle sun-minor planet-earth)        
    AU:     Astronomical Unit (mean distance between earth and sun: 149597870.7 km
    

Orbital elements provided by the MPC (Minor Planet Center).
Calculations by a modified version of AAPlus, a C# implementation of the AA+ project by PJ Naughter from the algorithms presented in the book "Astronomical Algorithms" by Jean Meeus.
NGC2000 dso catalog and star labels from VizieR as provided by the Strasbourg astronomical Data Center.
Tycho2 catalog from the ESO archive.